Find Weili Kongjian 01-04

NORAD ID: 62579 Int'l Des: 2025-007 Owner: CENTI Country: CN Constellation: future-navigation operational
LEOCIRCULAR

当前视图

正在加载3D地球...

关于 Weili Kongjian 01-04

正在加载描述...

即将过境

Passes for default location (London). Set your location on the main map for personalized predictions.

高度历史

Loading altitude history...

两行轨道根数

1 62579U 25007E 26150.17132022 -.00000028 00000-0 10700-3 0 9997
2 62579 54.9902 354.4625 0013155 63.8104 296.4204 13.80607275 72247
Epoch: May 30, 2026 • Age: 7 hours

当前状态

高度 964.5 km
速度 7.37 km/s
星下点 -14.80°S, 69.75°W
发射日期 Jan 13, 2025
运行时间 1.3 years
类型 other

技术详情

分类 Payload
质量 140.00 kg
干质量 140.00 kg
总质量 140.00 kg
长度 1.00 m
直径 0.50 m
跨度 2.00 m
形状 Box + 2 pan
制造商 DFHS
平台类型 WK01
阶段状态 In Orbit
所有者/国家 CENTI/CN

Most Searched